Content
SEND FEEDBACK

Daily
Averages
Monthly
Summary
United States of America

PUT IN BAY, OHIO


Home > North America > United States > Ohio
Elevation: 171 meters     Latitude: 41 39N     Longitude: 082 48W

WEATHER
 
SELECT A DAY
Number of Records: 122,510;   Date Range: 12/10/00 - 7/30/14
 
SHARE

PRINT THIS DATA

[ ← Previous Day ]
WEATHER ALMANAC - 28 JANUARY, 2013
[ Next Day → ]
[ °F ]   °C
Weather ElementAverageHighLow
Temperature3.6 °C6.9 °C (8:00 pm)-0.6 °C (1:00 am)
Dewpoint3.1 °C6.7 °C (8:00 pm)-2.4 °C (1:00 am)
Humidity96.3 %100 % (5:00 am)82 % (1:00 am)
Barometer1015.2 hPa1022 hPa (1:00 am)1011.9 hPa (2:00 pm)
Wind Speed16.3 km/h27.8 km/h (1:00 pm)
Wind Gust40.7 km/h (2:00 pm)
Weather ElementAverage
Wind DirectionWSW (230.7 °)

Weather ElementTotal
Precipitation4.83 mm
Heating Degree Days15.2 (Base 18.3)
Averaged from 27 records on 28 January, 2013
WEATHER CONDITIONS BREAKOUT
WIND DIRECTION BREAKOUT
WEATHER BY HOUR - 28 JANUARY, 2013
[ °F ]   °C
Local TimeTemperatureDewpointHumidityBarometerVisibilityWind DirectionWind SpeedGust SpeedPrecipitationEventsConditions
1:00 AM-0.6 °C-2.2 °C82 %1022 hPaSSE (160°)18.5 km/h
1:00 AM-0.5 °C-2.4 °C87 %1022 hPaSSE (160°)18.5 km/h
2:00 AM-0.4 °C-1.6 °C92 %1020.3 hPaSSE (150°)9.3 km/h1.52 mm
3:00 AM-0.2 °C-1.2 °C93 %1019 hPaSSE (150°)9.3 km/h
4:00 AM-0.2 °C-0.4 °C99 %1017.6 hPaSSE (160°)9.3 km/h
5:00 AM-0.4 °C0 °C100 %1016.6 hPaSouth (180°)9.3 km/h
6:00 AM1.3 °C0.9 °C97 %1015.9 hPaSSW (200°)14.8 km/h1.27 mm
7:00 AM2.2 °C1.7 °C94 %1014.9 hPaSSW (200°)20.4 km/h
7:00 AM2 °C1.6 °C97 %1014.9 hPaSSW (200°)20.4 km/h29.6 km/h1.27 mm
8:00 AM2.6 °C2.2 °C97 %1014.2 hPaSSW (200°)20.4 km/h31.5 km/h
9:00 AM3.1 °C2.7 °C97 %1013.9 hPaSSW (210°)20.4 km/h
10:00 AM3.6 °C3.1 °C97 %1013.2 hPaSW (220°)18.5 km/h27.8 km/h
11:00 AM4.3 °C3.9 °C97 %1013.5 hPaSW (220°)20.4 km/h31.5 km/h0.76 mm
12:00 PM5 °C4.6 °C97 %1013.2 hPaSW (230°)22.2 km/h33.3 km/h
1:00 PM5.6 °C5.6 °C98 %1012.2 hPaWSW (240°)27.8 km/h
1:00 PM5.6 °C5.3 °C98 %1012.2 hPaWSW (240°)27.8 km/h
2:00 PM6.1 °C5.8 °C98 %1011.9 hPaWSW (240°)27.8 km/h40.7 km/h
3:00 PM6.6 °C6.3 °C98 %1011.9 hPaWSW (240°)25.9 km/h37 km/h
4:00 PM6.6 °C6.3 °C98 %1012.5 hPaWSW (240°)22.2 km/h31.5 km/h
5:00 PM6.2 °C5.9 °C98 %1012.9 hPaWSW (250°)16.7 km/h
6:00 PM5.9 °C5.6 °C98 %1013.9 hPaWSW (250°)13 km/h
7:00 PM6.1 °C6.1 °C99 %1014.6 hPaWest (270°)11.1 km/h
7:00 PM6.3 °C6 °C98 %1014.6 hPaWest (270°)11.1 km/h
8:00 PM6.9 °C6.7 °C99 %1015.6 hPaWNW (290°)9.3 km/h
9:00 PM5.4 °C5.1 °C98 %1016.3 hPaNorth (350°)3.7 km/h
10:00 PM3.8 °C3.4 °C97 %1016.6 hPaNorth (350°)5.6 km/h
11:00 PM3.1 °C2.6 °C97 %1016.9 hPaNorth (360°)5.6 km/h
Hourly data recorded from CXHA, located 0 kilometers away from Put In Bay, Ohio







STORIES FROM OUR PARTNERS